Hourly Data Report for October 01, 2017

All times are specified in Local Standard Time (LST). Add 1 hour to adjust for Daylight Saving Time where and when it is observed.

FORT CHIPEWYAN
ALBERTA

58°46'02.000" N
111°07'02.000" W
238.00 m
3072655
71305
YPY

Download Data

Hourly Data (October 2017)
Hourly Data Report for October 1, 2017
Temp Definition
°C
Dew Point Temp Definition
°C
Rel Hum Definition
%
Wind Dir Definition
10's deg

Wind Spd Definition
km/h
Visibility Definition
km
Stn Press Definition
kPa
Hmdx Definition


Wind Chill Definition


Weather Definition


TIME
00:00 Legend Double Dagger 10.9 9.3 90 30 21 16.1 97.30     LegendNANA
01:00 Legend Double Dagger 11.1 9.4 89 30 21 16.1 97.36     LegendNANA
02:00 Legend Double Dagger 10.9 9.2 89 30 21 16.1 97.43     LegendNANA
03:00 Legend Double Dagger 10.8 8.6 86 29 15 16.1 97.50     LegendNANA
04:00 Legend Double Dagger 10.4 8.2 86 31 15 16.1 97.54     LegendNANA
05:00 Legend Double Dagger 9.6 7.4 86 31 22 16.1 97.61     LegendNANA
06:00 Legend Double Dagger 7.6 7.0 96 29 22 8.1 97.74     Rain,Fog
07:00 Legend Double Dagger 6.6 6.0 96 30 28 6.4 97.82     Rain,Fog
08:00 Legend Double Dagger 5.5 5.0 97 30 28 16.1 97.91     Rain
09:00 Legend Double Dagger 5.2 4.8 97 32 21 8.1 97.98     Moderate Rain,Fog
10:00 Legend Double Dagger 5.4 5.0 97 31 21 8.1 98.07     Rain,Fog
11:00 Legend Double Dagger 5.4 5.1 98 32 18 4.8 98.19     Rain,Fog
12:00 Legend Double Dagger 5.8 5.4 97 31 21 8.1 98.26     Rain,Fog
13:00 Legend Double Dagger 6.0 5.4 96 33 22 16.1 98.34     Rain
14:00 Legend Double Dagger 6.2 5.8 97 31 24 6.4 98.43     Fog
15:00 Legend Double Dagger 6.7 5.2 90 34 22 16.1 98.52     LegendNANA
16:00 Legend Double Dagger 6.8 4.2 83 34 24 16.1 98.66     LegendNANA
17:00 Legend Double Dagger 6.4 2.9 78 34 17 16.1 98.78     LegendNANA
18:00 Legend Double Dagger 5.8 2.6 80 33 15 16.1 98.88     LegendNANA
19:00 Legend Double Dagger 4.8 2.3 84 33 18 16.1 99.01     LegendNANA
20:00 Legend Double Dagger 4.4 1.8 83 33 21 16.1 99.12     LegendNANA
21:00 Legend Double Dagger 4.6 2.3 85 34 24 16.1 99.20     LegendNANA
22:00 Legend Double Dagger 4.2 2.2 87 34 18 14.5 99.25     LegendNANA
23:00 Legend Double Dagger 3.7 3.3 97 35 15 3.2 99.32     Rain,Fog

Notes on Data Quality.

Legend

  • E = Estimated
  • M = Missing
  • NA = Not Available
  • ‡ = Partner data that is not subject to review by the National Climate Archives
Date modified: